Alcoa, TN

12:07 AM EST on December 04, 2016 (GMT -0500)
McGhee Tyson

Weather History for KTYS - January, 2014

Change the Weather History Date:

Friday, January 10, 2014

  Actual Average Record
Temperature  
Mean Temperature 44 °F 38 °F  
Max Temperature 51 °F 47 °F 76 °F (1949)
Min Temperature 37 °F 29 °F -4 °F (1970)
Degree Days  
Heating Degree Days 21 27  
Month to date heating degree days 350 270  
Since 1 July heating degree days 1709 1703  
Cooling Degree Days 0 0  
Month to date cooling degree days 0 0  
Year to date cooling degree days 0 0  
Moisture  
Dew Point 40 °F    
Average Humidity 77    
Maximum Humidity 93    
Minimum Humidity 60    
Precipitation  
Precipitation 0.08 in 0.15 in 1.66 in (1965)
Month to date precipitation 1.07 1.35  
Year to date precipitation 1.07 1.35  
Snow  
Snow 0.00 in 0.10 in - ()
Month to date snowfall 0.7 0.7  
Since 1 July snowfall 1.5 1.5  
Snow Depth 0.00 in    
Sea Level Pressure  
Sea Level Pressure 30.15 in    
Wind  
Wind Speed 2 mph (NE)    
Max Wind Speed 6 mph    
Max Gust Speed 8 mph    
Visibility 8 miles    
Events Rain    
T = Trace of Precipitation, MM = Missing Value Source: NWS Daily Summary

Daily Weather History Graph

Daily Weather History Graph

Search for Another Location

Airport or City:

Trip Planner

Search our weather history database for the weather conditions in past years. The results will help you decide how hot, cold, wet, or windy it might be!

Date:

Astronomy

Jan. 10, 2014 Rise Set
Actual Time 7:46 AM EST 5:40 PM EST
Civil Twilight 7:18 AM EST 6:09 PM EST
Nautical Twilight 6:46 AM EST 6:40 PM EST
Astronomical Twilight 6:15 AM EST 7:11 PM EST
Moon 1:41 PM EST (1/10) 2:56 AM EST (1/10)
Length of Visible Light 10h 50m
Length of Day
9h 54m
Waxing Gibbous, 75% of the Moon is Illuminated
Jan 10
Waxing Gibbous
Jan 15
Full
Jan 24
Last Quarter
Jan 30
New
Feb 6
First Quarter

Hourly Weather History & Observations

Time (EST) Temp. Windchill Dew Point Humidity Pressure Visibility Wind Dir Wind Speed Gust Speed Precip Events Conditions
12:53 AM 39.9 °F - 30.0 °F 68% 30.32 in 10.0 mi Calm Calm - 0.00 in Rain Light Rain
1:53 AM 39.0 °F - 33.1 °F 79% 30.31 in 10.0 mi Calm Calm - 0.00 in Rain Light Rain
2:53 AM 37.9 °F - 32.0 °F 79% 30.31 in 10.0 mi Calm Calm - 0.01 in Rain Light Rain
3:53 AM 39.0 °F - 34.0 °F 82% 30.30 in 10.0 mi Calm Calm - 0.00 in Rain Light Rain
4:53 AM 37.9 °F - 35.1 °F 89% 30.30 in 10.0 mi Calm Calm - 0.00 in   Overcast
5:53 AM 37.0 °F - 34.0 °F 89% 30.30 in 5.0 mi Calm Calm - 0.03 in Rain Light Rain
6:53 AM 37.0 °F - 34.0 °F 89% 30.29 in 5.0 mi Calm Calm - 0.01 in Rain Light Rain
7:19 AM 37.4 °F 34.9 °F 35.6 °F 93% 30.27 in 9.0 mi ENE 3.5 mph - 0.00 in Rain Light Rain
7:53 AM 37.0 °F - 35.1 °F 93% 30.29 in 4.0 mi Calm Calm - 0.00 in Rain Light Rain
8:53 AM 37.9 °F 35.5 °F 36.0 °F 93% 30.29 in 7.0 mi North 3.5 mph - 0.00 in   Overcast
9:22 AM 39.2 °F 35.0 °F 37.4 °F 93% 30.27 in 6.0 mi NNE 5.8 mph - N/A   Overcast
9:53 AM 41.0 °F 38.0 °F 37.0 °F 86% 30.29 in 9.0 mi NE 4.6 mph - N/A   Overcast
10:53 AM 44.1 °F 40.8 °F 41.0 °F 89% 30.27 in 9.0 mi NE 5.8 mph - N/A   Overcast
11:53 AM 45.0 °F - 41.0 °F 86% 30.23 in 10.0 mi Calm Calm - N/A   Overcast
12:02 PM 46.4 °F 44.3 °F 41.0 °F 81% 30.21 in 10.0 mi NE 4.6 mph - N/A   Overcast
12:53 PM 46.9 °F - 42.1 °F 83% 30.16 in 10.0 mi North 4.6 mph - N/A   Overcast
1:53 PM 48.9 °F - 43.0 °F 80% 30.12 in 10.0 mi NE 4.6 mph - N/A   Overcast
2:53 PM 51.1 °F - 44.1 °F 77% 30.09 in 10.0 mi NE 3.5 mph - N/A   Overcast
3:53 PM 51.1 °F - 44.1 °F 77% 30.06 in 10.0 mi ENE 3.5 mph - N/A   Overcast
4:53 PM 51.1 °F - 44.1 °F 77% 30.05 in 10.0 mi Calm Calm - N/A   Overcast
5:53 PM 50.0 °F - 44.1 °F 80% 30.03 in 10.0 mi East 3.5 mph - N/A   Overcast
6:53 PM 48.0 °F - 43.0 °F 83% 30.01 in 10.0 mi Calm Calm - N/A   Overcast
7:53 PM 48.0 °F - 44.1 °F 86% 30.01 in 10.0 mi Calm Calm - N/A   Overcast
8:53 PM 46.9 °F - 44.1 °F 90% 30.01 in 10.0 mi WSW 3.5 mph - 0.00 in Rain Light Rain
9:42 PM 46.4 °F 42.9 °F 44.6 °F 93% 30.00 in 6.0 mi WSW 6.9 mph - 0.01 in Rain Light Rain
9:53 PM 46.9 °F - 45.0 °F 93% 30.00 in 8.0 mi West 5.8 mph - 0.01 in Rain Light Rain
10:08 PM 46.4 °F - 44.6 °F 93% 29.99 in 8.0 mi Calm Calm - 0.00 in Rain Light Rain
10:47 PM 46.4 °F - 44.6 °F 93% 29.98 in 2.5 mi Calm Calm - 0.01 in Rain Light Rain
10:48 PM 46.9 °F - 45.0 °F 93% 29.98 in 2.5 mi Calm Calm - 0.01 in Rain Light Rain
11:08 PM 46.4 °F - 44.6 °F 93% 29.97 in 4.0 mi Calm Calm - 0.01 in Rain Light Rain
11:12 PM 46.4 °F - 44.6 °F 93% 29.97 in 2.0 mi Calm Calm - 0.01 in Rain Light Rain
11:45 PM 46.4 °F 45.2 °F 44.6 °F 93% 29.95 in 1.5 mi SE 3.5 mph - 0.01 in   Overcast
11:53 PM 46.0 °F - 45.0 °F 96% 29.94 in 1.5 mi Calm Calm - 0.01 in   Overcast